x

9439040 - Astoria, Or (asto3) Weather Station

9:30 - Tue 1st Sep 2015 All times are PDT. -7 hours from GMT.

  • Wind
    5mph, 10mph gusts
  • Sea Temp 66°f
  • Ar Temp 60°f
  • Sea Pressure 1011.1mb
  • 9439040 - Astoria, Or
  • 9439040 - Astoria, Or

More Historic Weather Station data

Upgrade to MSW Pro to gain access to the past 30 days of data for over 8000 Wavebouys and Weather Stations around the globe.

Join Pro

Comparision Forecast

View Surf forecast
   
Ter 09/01 9:30 5 10 mph 1011.1mb 66f 60f
9:24 3 9 mph 1011mb 66f 60f
9:18 6 9 mph 1011.1mb 66f 60f
9:12 6 9 mph 1011.1mb 66f 60f
9:06 5 7 mph 1011.1mb 66f 60f
9:00 8 10 mph 1011.1mb 66f 60f
8:54 8 11 mph 1010.9mb 66f 60f
8:48 7 11 mph 1010.8mb 66f 60f
8:42 8 11 mph 1010.8mb 66f 60f
8:36 7 11 mph 1010.7mb 66f 60f
8:30 8 14 mph 1010.6mb 66f 60f
8:24 9 11 mph 1010.7mb 66f 60f
8:18 6 10 mph 1010.7mb 66f 60f
8:12 7 9 mph 1010.7mb 66f 61f
8:06 7 10 mph 1010.7mb 66f 61f
8:00 6 9 mph 1010.6mb 66f 61f
7:54 7 9 mph 1010.7mb 66f 61f
7:48 7 9 mph 1010.8mb 66f 62f
7:42 7 13 mph 1010.8mb 66f 62f
7:36 7 10 mph 1010.8mb 66f 62f
7:30 6 9 mph 1010.8mb 66f 62f
7:24 6 9 mph 1010.9mb 65f 62f
7:18 5 7 mph 1010.8mb 66f 62f
7:12 5 8 mph 1010.8mb 66f 62f
7:06 5 6 mph 1010.9mb 66f 62f
7:00 5 7 mph 1010.8mb 66f 62f
6:54 6 7 mph 1010.9mb 66f 62f
6:48 5 7 mph 1010.9mb 66f 62f
6:42 5 7 mph 1010.9mb 66f 62f
6:36 6 9 mph 1010.9mb 67f 62f
6:30 6 9 mph 1010.9mb 67f 62f
6:24 6 8 mph 1010.9mb 67f 62f
6:18 7 11 mph 1011mb 67f 62f
6:12 7 10 mph 1011mb 67f 62f
6:06 9 11 mph 1011mb 67f 62f
6:00 9 11 mph 1010.9mb 67f 62f
5:54 8 13 mph 1010.8mb 67f 63f
5:48 9 13 mph 1011mb 66f 62f
5:42 9 13 mph 1011.1mb 65f 62f
5:36 8 10 mph 1010.9mb 61f 55f
5:30 9 11 mph 1011mb 62f 55f
4:54 10 13 mph 1010.9mb 66f 62f
4:48 8 15 mph 1010.9mb 66f 62f
4:42 9 14 mph 1011mb 66f 62f
4:36 10 15 mph 1011.1mb 66f 62f
4:30 11 16 mph 1011.3mb 66f 61f
4:24 10 14 mph 1011.3mb 66f 61f
4:18 9 11 mph 1011.2mb 66f 62f
4:12 9 14 mph 1011.3mb 66f 61f
4:06 11 17 mph 1011.4mb 66f 61f
4:00 10 20 mph 1011.4mb 66f 61f
3:54 13 17 mph 1011.5mb 66f 61f
3:48 11 21 mph 1011.5mb 67f 61f
3:42 20 23 mph 1011.8mb 67f 61f
3:36 20 26 mph 1011.8mb 67f 61f
3:30 17 22 mph 1011.7mb 67f 62f
3:24 16 22 mph 1011.7mb 67f 63f
3:18 14 20 mph 1011.6mb 67f 63f
3:12 14 22 mph 1011.6mb 67f 63f
3:06 13 17 mph 1011.5mb 67f 64f
3:00 14 18 mph 1011.6mb 67f 64f
2:54 13 18 mph 1011.6mb 68f 65f
2:48 13 18 mph 1011.6mb 68f 65f
2:42 15 20 mph 1011.6mb 68f 64f
2:36 13 17 mph 1011.6mb 68f 64f
2:30 13 20 mph 1011.7mb 68f 64f
2:24 14 21 mph 1011.7mb 68f 64f
2:18 14 21 mph 1011.7mb 68f 64f
2:12 14 21 mph 1011.7mb 69f 64f
2:06 14 22 mph 1011.7mb 69f 64f
2:00 15 18 mph 1011.7mb 69f 64f
1:54 15 20 mph 1011.7mb 69f 64f
1:48 8 18 mph 1011.7mb 69f 64f
1:42 14 20 mph 1011.7mb 69f 64f
1:36 13 20 mph 1011.7mb 69f 64f
1:30 13 18 mph 1011.8mb 69f 64f
1:24 13 17 mph 1011.9mb 69f 64f
1:18 13 15 mph 1011.9mb 69f 64f
1:12 9 17 mph 1012.1mb 69f 64f
1:06 13 16 mph 1012.1mb 69f 64f
1:00 15 21 mph 1012.1mb 69f 64f
12:54 11 18 mph 1012.2mb 69f 63f
12:48 14 20 mph 1012.2mb 69f 63f
12:42 9 16 mph 1012.3mb 69f 63f
12:36 13 15 mph 1012.3mb 69f 62f
12:30 11 18 mph 1012.3mb 68f 62f
12:24 11 18 mph 1012.2mb 68f 62f
12:18 13 18 mph 1012.1mb 69f 62f
12:12 14 21 mph 1012.2mb 69f 61f
12:06 11 17 mph 1012.4mb 68f 61f
12:00 11 16 mph 1012.6mb 68f 61f
11:54 11 20 mph 1012.6mb 68f 62f
11:48 13 20 mph 1012.5mb 68f 61f
11:42 13 20 mph 1012.4mb 68f 61f
11:36 10 22 mph 1012.4mb 68f 62f
11:30 13 18 mph 1012.4mb 68f 62f
11:24 13 17 mph 1012.4mb 68f 62f
11:18 10 14 mph 1012.4mb 68f 62f
11:12 9 18 mph 1012.4mb 68f 62f
11:06 11 14 mph 1012.4mb 68f 62f
11:00 7 10 mph 1012.4mb 68f 62f
10:54 7 9 mph 1012.4mb 68f 62f
10:48 8 11 mph 1012.4mb 68f 62f
10:42 7 11 mph 1012.4mb 68f 62f
10:36 9 13 mph 1012.4mb 68f 62f
10:30 9 11 mph 1012.4mb 68f 62f
10:24 9 13 mph 1012.4mb 68f 62f
10:18 11 17 mph 1012.3mb 68f 62f
10:12 10 15 mph 1012.4mb 68f 62f
10:06 11 16 mph 1012.4mb 68f 62f
10:00 8 14 mph 1012.4mb 67f 61f
9:54 10 14 mph 1012.4mb 67f 61f
9:48 10 13 mph 1012.5mb 67f 61f
9:42 6 14 mph 1012.5mb 67f 61f
9:36 6 8 mph 1012.6mb 67f 61f
9:30 6 8 mph 1012.6mb 67f 61f
9:24 6 7 mph 1012.7mb 66f 60f
9:18 3 7 mph 1012.7mb 66f -
9:12 5 7 mph 1012.8mb 66f -
9:06 7 9 mph 1012.7mb 66f -
9:00 5 8 mph 1012.7mb 66f 60f
8:54 6 9 mph 1012.6mb 66f 60f
8:48 7 9 mph - 66f 60f
8:42 7 8 mph - 66f 60f
8:36 6 9 mph - 66f 60f
8:30 7 9 mph 1012.6mb 66f 60f
8:24 6 9 mph 1012.7mb 66f 60f
8:18 7 9 mph 1012.6mb 66f 60f
8:12 8 14 mph 1012.7mb 66f 60f
8:06 9 10 mph 1012.6mb 66f 60f
8:00 9 13 mph 1012.6mb 66f 60f
7:54 9 14 mph 1012.5mb 66f 60f
7:48 10 15 mph 1012.6mb 66f 61f
7:42 9 13 mph 1012.6mb 66f 61f
7:36 8 14 mph 1012.6mb 66f 61f
7:30 8 14 mph 1012.6mb 66f 61f
7:24 8 13 mph 1012.6mb 66f 62f
7:18 9 11 mph 1012.5mb 66f 62f
7:12 8 10 mph 1012.5mb 66f 62f
7:06 6 8 mph 1012.5mb 66f 62f
7:00 7 9 mph 1012.6mb 66f 62f
6:54 8 11 mph 1012.6mb 66f 62f
6:48 9 11 mph 1012.5mb 66f 62f
6:42 9 15 mph 1012.6mb 66f 62f
6:36 10 14 mph 1012.7mb 66f 62f
6:30 8 10 mph 1012.7mb 66f 62f
6:24 7 10 mph 1012.6mb 65f 62f
6:18 7 11 mph 1012.7mb 64f 62f
6:12 8 10 mph 1012.7mb 65f 62f
6:06 8 11 mph 1012.8mb 66f 62f
6:00 8 11 mph 1012.9mb 67f 62f
5:54 7 10 mph 1013mb 67f 62f
5:48 8 10 mph 1013mb 67f 62f
5:42 9 11 mph 1013.1mb 67f 62f
5:36 8 11 mph 1013.1mb 67f 62f
5:30 7 11 mph 1013.2mb 67f 62f
5:24 8 13 mph 1013.1mb 67f 63f
5:18 8 13 mph 1013.2mb 67f 63f
5:12 8 11 mph 1013.3mb 66f 63f
5:06 7 10 mph 1013.3mb 66f 63f
5:00 6 8 mph 1013.4mb 66f 63f
4:54 5 7 mph 1013.4mb 66f 63f
4:48 6 9 mph 1013.4mb 66f 63f
4:42 5 8 mph 1013.4mb 66f 63f
4:36 5 7 mph 1013.4mb 66f 63f
4:30 5 8 mph 1013.4mb 66f 63f
4:24 6 8 mph 1013.4mb 66f 63f
4:18 7 10 mph 1013.5mb 66f 63f
4:12 7 10 mph 1013.5mb 66f 63f
4:06 6 10 mph 1013.5mb 66f 63f
4:00 6 9 mph 1013.5mb 66f 63f
3:54 5 8 mph 1013.5mb 66f 63f
3:48 6 7 mph 1013.6mb 66f 63f
3:42 6 10 mph 1013.6mb 66f 63f
3:36 5 8 mph 1013.5mb 66f 63f
3:30 6 10 mph - - 63f
3:24 8 11 mph - - 63f
3:18 6 10 mph 1013.6mb 67f 63f
3:12 7 10 mph 1013.7mb 67f 63f
3:06 6 9 mph 1013.7mb 67f 63f
3:00 6 10 mph 1013.7mb 67f 63f
2:54 8 9 mph 1013.8mb 68f 63f
2:48  -  mph 1013.8mb 68f 63f
2:42  -  mph 1013.8mb 68f 63f
2:36  -  mph 1013.8mb 68f 63f
2:30 8 11 mph 1013.8mb 68f 63f
2:24 8 10 mph 1013.9mb 68f 63f
2:18 8 10 mph 1013.9mb 68f 63f
2:12 8 10 mph 1013.8mb 68f 63f
2:06 9 13 mph 1013.8mb 68f 63f
2:00 8 15 mph 1013.8mb 68f 63f
1:54 8 11 mph 1013.8mb 68f 63f
1:48 8 10 mph 1013.8mb 69f 63f
1:42 8 11 mph 1013.9mb 69f 63f
1:36 8 11 mph 1013.9mb 69f 63f
1:30 7 10 mph 1014mb 68f 62f
1:24 7 11 mph 1014mb 68f 63f
1:18 7 13 mph - 68f 63f
1:12 8 13 mph - 68f 63f
1:06 8 11 mph - 68f 63f
1:00 8 11 mph 1014mb 69f 63f
12:54 7 10 mph 1014mb 69f 62f
12:48 7 13 mph 1014mb 69f 62f
12:42 9 11 mph 1014mb 69f 62f
12:36 7 10 mph 1014mb 69f 62f
12:30 7 13 mph 1014.1mb 69f 63f
12:24 7 10 mph 1014.1mb 69f 63f
12:18 9 13 mph 1014.1mb 69f 63f
12:12 10 14 mph 1014.1mb 69f 63f
12:06 9 15 mph 1014.2mb 68f 63f
12:00 9 13 mph - 68f 63f
Seg 08/31 11:54 9 13 mph - 69f 63f
11:48 9 15 mph 1014.3mb 68f 63f
11:42 10 13 mph 1014.3mb 68f 63f
11:36 10 14 mph 1014.4mb 68f 63f
11:30 9 11 mph 1014.4mb 68f 63f
11:24 9 14 mph 1014.5mb 69f 63f
11:18 7 9 mph 1014.6mb 69f 63f
11:12 7 9 mph 1014.5mb 68f 63f
11:06 6 11 mph 1014.6mb 68f 63f
11:00 8 10 mph 1014.6mb 68f 63f
10:54 9 14 mph 1014.6mb 68f 63f
10:48 8 11 mph 1014.6mb 68f 63f
10:42 9 14 mph 1014.6mb 68f 63f
10:36 9 13 mph 1014.6mb 68f 63f
10:30 9 14 mph 1014.7mb 68f 63f
10:24 9 13 mph 1014.6mb 68f 63f
10:18 8 11 mph 1014.6mb 68f 63f
10:12 10 14 mph 1014.7mb 68f 63f
10:06 8 13 mph 1014.7mb 68f 63f
10:00 8 11 mph 1014.8mb 68f -
9:54 9 11 mph 1014.8mb 68f -
9:48 10 15 mph 1014.8mb 68f 63f
9:42 8 11 mph 1014.8mb 68f 63f
9:36 11 15 mph 1014.8mb 68f 63f
9:30 8 13 mph 1014.7mb 68f 63f
9:24 11 15 mph 1014.7mb 68f 63f
9:18 11 16 mph 1014.7mb 68f 63f
9:12 10 15 mph 1014.7mb 68f 63f
9:06 9 14 mph 1014.7mb 68f 63f
9:00 10 16 mph - 67f 63f
8:54 9 17 mph - 67f 63f
8:48 9 13 mph 1014.6mb 67f 63f
8:42 9 14 mph 1014.6mb 67f 64f
8:36 10 13 mph 1014.6mb 67f 64f
8:30 7 11 mph 1014.6mb 67f 64f
8:24 9 13 mph 1014.5mb 67f 64f
8:18 9 15 mph 1014.4mb 67f 64f
8:12 9 14 mph 1014.4mb 66f 64f
8:06 8 15 mph 1014.4mb 66f 64f
8:00 7 10 mph 1014.5mb 66f 64f
7:54 8 11 mph 1014.5mb 66f 64f
7:48 8 13 mph 1014.6mb 66f 64f
7:42 8 11 mph 1014.5mb 66f 64f
7:36 7 11 mph 1014.5mb 66f 64f
7:30 8 14 mph 1014.5mb 66f 64f
7:24 8 14 mph 1014.5mb 66f 64f
7:18 7 14 mph - 66f 64f
7:12 9 14 mph - 66f 64f
7:06 8 13 mph - 66f 64f
7:00 7 11 mph 1014.7mb 66f 64f
6:54 7 10 mph 1014.7mb 66f 64f
6:48 9 11 mph 1014.9mb 66f 64f
6:42 10 14 mph 1014.9mb 66f 65f
6:36 10 17 mph 1015mb 66f 65f
6:30 11 17 mph 1015.1mb 66f -
6:24 7 11 mph 1015.1mb 65f -
6:18 8 14 mph 1015.1mb 65f -
6:12 8 15 mph 1015.1mb 65f -
6:06 9 15 mph 1015.2mb 65f -
6:00 11 15 mph 1015.2mb 65f 65f
5:54 10 18 mph 1015.2mb 66f 65f
5:48 14 20 mph 1015.3mb 66f 65f
5:42 16 23 mph 1015.3mb 66f 65f
5:36 10 20 mph 1015.3mb 66f 65f
5:30 14 16 mph 1015.3mb 66f 65f
5:24 14 18 mph 1015.3mb 66f 65f
5:18 17 21 mph 1015.3mb 66f 65f
5:12 14 17 mph 1015.3mb 66f 65f
5:06 14 18 mph 1015.3mb 65f 65f
5:00 14 18 mph 1015.4mb 65f 65f
4:54 13 18 mph 1015.4mb 65f 65f
4:48 13 16 mph 1015.5mb 65f 66f
4:42 13 16 mph 1015.6mb 66f 66f
4:36 11 21 mph 1015.6mb 66f 66f
4:00 10 16 mph 1015.7mb 66f 67f
3:54 14 17 mph 1015.8mb 65f 66f
3:48 11 15 mph 1015.8mb 65f 66f
3:42 10 14 mph 1015.8mb 66f 66f
3:36 11 17 mph 1015.9mb 66f 66f
3:30 14 18 mph 1016mb 66f 66f
3:24 8 17 mph 1015.9mb 66f 67f
3:18 13 18 mph 1015.9mb 66f 67f
3:12 13 18 mph 1015.9mb 67f 66f
3:06 11 16 mph 1016mb 67f 66f
3:00 9 17 mph 1016.1mb 67f 66f
2:54 11 17 mph 1016.2mb 67f 66f
2:48 13 17 mph 1016.2mb 67f 65f
2:42 11 20 mph 1016.2mb 67f 65f
2:36 15 21 mph 1016.3mb 67f 65f
2:30 13 17 mph 1016.3mb 67f 65f
2:24 14 21 mph 1016.4mb 67f 65f
2:18 13 20 mph 1016.4mb 67f 66f
2:12 14 21 mph 1016.6mb 68f 65f
2:06 16 21 mph 1016.6mb 68f 65f
2:00 15 23 mph 1016.6mb 68f 65f
1:54 15 25 mph 1016.6mb 68f 65f
1:48 15 24 mph 1016.6mb 68f 65f
1:42 16 23 mph 1016.6mb 68f 65f
1:36 13 26 mph 1016.6mb 68f 65f
1:30 20 23 mph 1016.6mb 68f 65f
1:24 18 23 mph 1016.7mb 68f 65f
1:18 20 23 mph 1016.6mb 68f 65f
1:12 14 20 mph 1016.6mb 68f 65f
1:06 10 15 mph 1016.6mb 68f 65f
1:00 13 18 mph 1016.6mb 68f 65f
12:54 10 14 mph 1016.7mb 69f 64f
12:48 9 15 mph 1016.7mb 68f 64f
12:42 10 18 mph 1016.7mb 68f 64f
12:36 15 20 mph 1016.7mb 68f 64f
12:30 10 17 mph 1016.7mb 68f 64f
12:24 14 21 mph 1016.7mb 68f 63f
12:18 11 18 mph 1016.6mb 68f 63f
12:12 14 17 mph 1016.6mb 68f 63f
12:06 14 18 mph 1016.7mb 68f 64f
12:00 11 17 mph 1016.6mb 68f 65f
11:54 14 22 mph 1016.6mb 68f 65f
11:48 18 23 mph 1016.6mb 68f 65f
11:42 13 22 mph 1016.5mb 68f 65f
11:36 14 22 mph 1016.6mb 68f 65f
11:30 13 17 mph 1016.6mb 68f 64f
11:24 14 18 mph 1016.7mb 68f 64f
11:18 14 20 mph 1016.8mb 68f 64f
11:12 11 16 mph 1016.7mb 68f 64f
11:06 11 20 mph 1016.7mb 68f 64f
11:00 11 22 mph 1016.9mb 68f 63f
10:54 14 18 mph 1016.8mb 68f 63f
10:48 15 20 mph 1016.8mb 68f 63f
10:42 13 17 mph 1016.8mb 68f 64f
10:36 9 15 mph 1016.7mb 68f 64f
10:30 13 18 mph 1016.7mb 68f 64f
10:24 10 16 mph 1016.8mb 68f 64f
10:18 11 16 mph 1016.8mb 68f 64f
10:12 14 16 mph 1016.7mb 68f 63f
10:06 11 14 mph 1016.6mb 68f 63f
10:00 9 14 mph 1016.6mb 68f 63f
9:54 10 15 mph 1016.6mb 68f 63f
9:48 9 17 mph 1016.5mb 68f 63f
9:42 11 15 mph 1016.4mb 68f 63f
9:36 13 16 mph 1016.4mb 68f 63f
9:30 10 15 mph 1016.5mb 68f 62f
9:24 9 13 mph 1016.4mb 68f 62f
9:18 8 11 mph 1016.4mb 68f 62f
9:12 10 13 mph 1016.4mb 68f 62f
9:06 9 11 mph 1016.4mb 68f 61f
9:00 9 11 mph 1016.4mb 67f 61f
8:54 9 14 mph 1016.4mb 67f 62f
8:48 11 17 mph 1016.4mb 67f 61f
7:54 10 13 mph 1016.3mb 66f 61f
7:48 9 13 mph 1016.3mb 66f 60f
6:54 10 15 mph 1016mb 65f 60f
6:48 9 13 mph 1015.9mb 65f 60f
5:54 9 11 mph 1016.2mb 65f 59f
5:48 7 10 mph 1016.2mb 65f 59f
4:54 10 18 mph 1016mb 67f 62f
4:48 13 24 mph 1016.1mb 67f 62f
3:54 6 9 mph 1016.2mb 66f 62f
3:48 8 10 mph 1016.2mb 66f 62f
2:54 5 8 mph 1016.7mb 65f 61f
2:48 6 8 mph 1016.8mb 65f 62f